Home   Weather   Teresina   Past weeks

Flag for Brazil Past Weather in Teresina, Piauí, Brazil — Yesterday and Last 2 Weeks

Now
75 °F

Partly cloudy.


Feels Like: 74 °F
Forecast: 77 / 87 °F
Wind: 2 mph from North

Location: Teresina Aeroporto

Current Time: Jan 20, 2017 at 4:59:26 am

Latest Report: Jan 20, 2017 at 4:00 am


Visibility: N/A

Pressure: 29.86 "Hg

Humidity: 94%

Dew Point: 73 °F

Location of TeresinaLocation

Past Weather in Teresina — Graph

°F

Teresina Temperature Yesterday

Maximum temperature yesterday: 90 °F (at 3:00 pm)
Minimum temperature yesterday: 72 °F (at 4:00 am)
Average temperature yesterday: 79 °F

High & Low Weather Summary for the Past Weeks

 TemperatureHumidityPressure
High100 °F (Jan 5, 4:00 pm)94% (Jan 11, 12:00 am)30.01 "Hg (Jan 11, 12:00 am)
Low72 °F (Jan 11, 12:00 am)24% (Jan 5, 4:00 pm)29.68 "Hg (Jan 6, 4:00 pm)
Average83 °F68%29.82 "Hg
* Reported Jan 5 3:00 am — Jan 20 3:00 am, Teresina, Weather by CustomWeather, © 2017

Note: Actual official high and low records may vary slightly from our data, if they occured in-between our weather recording intervals... More about our weather records

Advertising

Teresina Weather History for the Previous 24 Hours

Scroll right to see more
 ConditionsComfort  
Time TempWeatherWind HumidityBarometerVisibility
3:00 am
Fri, Jan 20
75 °FPartly cloudy.7 mph94%29.86 "HgN/A
2:00 am75 °FLight rain. Partly cloudy.9 mph94%29.86 "HgN/A
1:00 am77 °FOvercast.5 mph89%29.89 "HgN/A
12:00 am77 °FPassing clouds.7 mph89%29.89 "HgN/A
11:00 pm
Thu, Jan 19
77 °FPartly cloudy.9 mph89%29.92 "HgN/A
10:00 pm79 °FPassing clouds.8 mph84%29.92 "HgN/A
9:00 pm79 °FPartly cloudy.10 mph84%29.92 "HgN/A
8:00 pm81 °FPassing clouds.12 mph79%29.86 "HgN/A
7:00 pm82 °FPassing clouds.6 mph74%29.83 "HgN/A
6:00 pm86 °FSunny.8 mph62%29.80 "Hg10 mi
4:00 pm90 °FScattered clouds.5 mph55%29.80 "HgN/A
3:00 pm90 °FPartly sunny.5 mph55%29.80 "HgN/A
2:00 pm88 °FScattered clouds.2 mph59%29.83 "HgN/A
1:00 pm86 °FScattered clouds.3 mph62%29.86 "HgN/A
12:00 pm82 °FPartly sunny.3 mph70%29.89 "HgN/A
11:00 am82 °FPartly sunny.6 mph70%29.92 "HgN/A
10:00 am79 °FScattered clouds.6 mph79%29.92 "HgN/A
9:00 am77 °FOvercast.7 mph83%29.92 "HgN/A
8:00 am75 °FPartly sunny.5 mph89%29.92 "HgN/A
7:24 am73 °FPartly sunny.2 mph89%29.92 "HgN/A
7:00 am73 °FScattered clouds.3 mph89%29.89 "HgN/A
6:00 am73 °FClear.3 mph89%29.86 "HgN/A
5:00 am73 °FPassing clouds.5 mph89%29.83 "HgN/A
4:00 am72 °FLight rain. Partly cloudy.13 mph94%29.83 "HgN/A
Weather by CustomWeather, © 2017

See weather overviewHow to use our weather pages